Date,TemperatureHighF,TemperatureAvgF,TemperatureLowF,DewpointHighF,DewpointAvgF,DewpointLowF,HumidityHigh,HumidityAvg,HumidityLow,PressureMaxIn,PressureMinIn,WindSpeedMaxMPH,WindSpeedAvgMPH,GustSpeedMaxMPH,PrecipitationSumIn
2013-1-1,14.4,6.1,-4.0,6.7,0.2,-7.1,93,77,61,30.34,30.20,8,3,13,0.00
2013-1-2,23.0,17.0,12.1,15.1,10.7,6.0,95,76,57,30.20,30.09,7,4,12,0.00
2013-1-3,24.1,18.0,8.4,19.6,14.1,4.3,92,85,82,30.27,30.11,11,5,16,0.00
2013-1-4,31.0,20.0,8.3,20.0,13.8,4.0,95,77,62,30.24,30.11,15,7,18,0.00
2013-1-5,32.5,23.9,9.1,29.1,20.1,6.4,94,85,75,30.25,29.91,8,3,15,0.00
2013-1-6,31.9,23.7,15.1,25.5,19.1,11.9,96,83,71,30.30,29.92,11,4,17,0.00
2013-1-7,37.5,25.6,11.3,26.0,19.0,8.4,88,77,59,30.29,30.02,16,6,28,0.01
2013-1-8,38.0,30.4,20.3,32.0,26.0,18.6,94,84,72,30.12,29.91,10,4,20,0.00
2013-1-9,39.4,33.5,23.7,32.0,25.6,19.7,92,73,52,30.47,29.90,20,8,27,0.00
2013-1-10,36.4,28.9,19.1,33.8,24.5,16.7,100,84,69,30.51,29.90,9,3,16,0.30
2013-1-11,42.9,37.6,33.7,42.1,36.7,32.7,100,96,95,29.90,29.57,8,2,13,0.05
2013-1-12,46.7,31.1,18.5,43.0,25.6,12.4,97,80,69,30.04,29.56,21,9,32,0.01
2013-1-13,19.0,12.8,8.5,14.1,6.6,2.4,84,76,64,30.29,29.97,13,4,19,0.00
2013-1-14,23.0,12.5,4.1,13.3,6.3,0.9,97,77,61,30.50,30.28,10,3,17,0.00
2013-1-15,30.3,18.4,6.3,17.4,11.0,3.0,91,74,52,30.47,30.08,15,4,20,0.00
2013-1-16,31.4,25.5,18.7,29.1,19.6,10.8,93,78,60,30.16,29.78,16,6,23,0.00
2013-1-17,23.5,16.3,9.9,16.1,6.5,0.0,93,66,48,30.45,30.16,9,3,16,0.00
2013-1-18,43.3,27.9,9.5,32.2,21.7,5.6,93,78,62,30.46,29.82,14,5,24,0.04
2013-1-19,45.9,33.6,8.4,34.3,26.2,-2.0,92,75,48,30.01,29.63,17,7,31,0.00
2013-1-20,13.5,7.6,3.2,4.6,-1.2,-4.0,84,68,47,30.37,30.01,11,4,27,0.00
2013-1-21,6.7,-1.4,-7.9,2.6,-8.3,-14.0,86,72,54,30.39,30.22,16,5,28,0.00
2013-1-22,7.4,-2.7,-10.0,4.1,-9.2,-15.0,91,74,55,30.47,30.38,7,3,16,0.00
2013-1-23,15.9,7.7,-1.3,12.2,2.5,-6.3,86,79,68,30.55,30.16,12,4,19,0.00
2013-1-24,11.5,4.6,-4.0,6.0,-1.4,-8.0,95,76,60,30.76,30.41,7,2,13,0.00
2013-1-25,21.3,16.1,10.6,15.5,11.5,5.6,89,82,72,30.41,29.99,14,4,17,0.00
2013-1-26,24.0,14.9,2.5,16.7,8.2,-0.7,91,75,57,30.46,30.27,8,2,14,0.01
2013-1-27,30.3,26.2,21.7,29.0,21.7,13.7,95,83,69,30.37,29.89,9,4,16,0.00
2013-1-28,39.2,32.4,29.9,38.2,30.9,28.6,100,94,89,29.98,29.79,7,2,13,0.26
2013-1-29,45.2,37.1,31.7,44.4,36.3,30.4,97,97,94,29.79,29.53,9,3,16,0.20
2013-1-30,32.9,25.2,13.2,32.1,23.9,11.0,97,95,91,29.62,29.39,17,5,23,0.00
2013-1-31,12.2,6.9,-1.3,10.0,3.7,-5.0,91,86,82,30.22,29.65,14,6,24,0.00
2013-2-1,4.1,-1.6,-9.2,-0.8,-6.0,-12.7,87,81,70,30.39,30.22,11,4,15,0.00
2013-2-2,17.2,8.4,2.2,15.4,4.6,-1.0,100,84,67,30.22,30.07,5,1,10,0.00
2013-2-3,18.4,10.7,2.9,13.0,5.7,0.0,92,80,65,30.10,30.01,10,3,16,0.00
2013-2-4,31.4,13.8,8.4,30.1,7.4,1.7,95,76,50,30.08,29.97,6,2,11,0.00
2013-2-5,26.9,17.8,5.4,23.5,14.1,0.8,93,85,76,30.17,29.79,12,4,17,0.00
2013-2-6,26.4,17.8,3.8,24.9,15.1,0.6,96,89,75,30.27,30.11,8,2,13,0.00
2013-2-7,30.6,26.9,21.8,30.0,25.5,20.0,96,95,92,30.19,30.01,12,4,16,0.00
2013-2-8,28.2,20.0,11.4,22.4,16.0,9.0,93,85,71,30.44,30.19,11,3,18,0.06
2013-2-9,26.4,19.1,5.6,24.0,16.6,3.3,93,90,86,30.44,30.12,11,4,16,0.00
2013-2-10,40.1,31.2,21.5,39.3,29.7,20.0,97,94,91,30.12,29.37,12,5,21,0.14
2013-2-11,36.3,29.7,24.5,34.2,26.2,19.0,94,87,77,30.01,29.35,20,9,34,0.00
2013-2-12,30.3,23.6,19.3,21.7,18.2,15.0,92,80,69,30.11,29.87,13,5,18,0.00
2013-2-13,40.0,29.5,19.5,28.5,24.2,17.8,94,81,61,29.88,29.68,8,3,11,0.00
2013-2-14,32.1,29.5,20.0,31.0,24.9,12.7,95,83,73,30.08,29.61,16,4,20,0.06
2013-2-15,24.8,15.7,7.4,12.8,7.4,2.0,85,70,49,30.28,30.08,16,3,19,0.00
2013-2-16,19.3,11.6,2.9,15.3,4.1,-1.0,92,73,46,30.27,30.21,14,2,14,0.00
2013-2-17,23.8,12.5,-3.2,16.5,4.2,-8.5,92,70,52,30.27,29.96,10,3,13,0.00
2013-2-18,43.1,31.7,23.2,33.5,25.6,16.5,92,78,65,29.96,29.51,13,5,24,0.01
2013-2-19,23.0,11.4,5.1,20.2,5.0,-3.0,91,76,59,30.26,29.57,19,7,27,0.00
2013-2-20,27.2,13.7,2.2,14.3,5.5,-3.4,87,70,48,30.48,30.26,9,3,15,0.00
2013-2-21,23.1,15.9,5.5,22.5,12.5,2.5,98,86,75,30.53,30.16,12,4,22,0.00
2013-2-22,30.4,24.8,20.9,29.0,23.1,19.0,95,93,87,30.16,29.84,18,4,25,0.03
2013-2-23,29.1,25.2,22.5,23.6,20.9,19.6,98,84,72,29.98,29.85,12,5,17,0.01
2013-2-24,39.5,27.4,16.0,27.5,21.1,14.1,93,78,54,30.17,29.97,6,2,14,0.01
2013-2-25,37.3,28.3,20.3,31.1,23.0,17.5,94,81,66,30.20,30.09,5,1,11,0.00
2013-2-26,35.2,28.7,22.9,27.5,24.4,21.0,100,85,68,30.11,29.75,18,7,32,0.00
2013-2-27,33.3,30.4,27.5,30.0,27.7,24.8,94,89,83,29.87,29.72,11,6,21,0.02
2013-2-28,33.1,30.2,24.1,28.0,23.9,15.9,90,77,69,30.20,29.87,12,5,18,0.02
2013-3-1,31.0,24.3,16.8,20.9,17.0,9.9,92,74,57,30.32,30.20,9,3,15,0.00
2013-3-2,30.8,18.9,9.4,15.2,9.0,5.4,92,67,40,30.33,30.22,7,3,14,0.00
2013-3-3,34.1,20.2,8.4,15.8,8.2,-6.0,92,63,21,30.23,30.13,6,2,8,0.00
2013-3-4,29.5,21.0,9.1,21.6,14.8,4.5,94,77,66,30.18,30.10,13,4,18,0.00
2013-3-5,27.4,25.6,24.2,26.0,22.8,19.0,94,89,78,30.19,29.99,9,4,21,0.00
2013-3-6,32.5,26.1,17.5,30.0,22.1,14.0,92,85,73,30.37,30.19,7,3,13,0.02
2013-3-7,36.3,23.4,9.0,23.5,16.7,6.0,93,76,50,30.48,30.37,5,2,9,0.01
2013-3-8,38.3,27.0,11.8,27.2,21.1,9.4,94,79,62,30.51,30.30,10,3,15,0.00
2013-3-9,38.9,33.5,28.1,34.6,29.8,23.9,96,86,76,30.30,29.81,9,4,16,0.00
2013-3-10,38.1,35.5,31.7,37.1,34.3,30.4,96,95,93,29.85,29.70,13,4,35,0.00
2013-3-11,34.6,31.2,26.5,32.4,29.3,23.2,96,93,84,29.80,29.59,9,3,18,0.00
2013-3-12,29.4,26.0,21.6,24.3,21.1,14.9,93,82,69,30.09,29.79,13,5,20,0.00
2013-3-13,33.8,24.0,16.0,16.0,12.1,6.7,87,63,34,30.36,30.09,10,4,18,0.00
2013-3-14,34.9,25.2,14.8,26.8,18.9,10.0,90,77,64,30.35,30.08,7,3,10,0.00
2013-3-15,34.5,30.1,25.4,32.3,27.9,23.7,94,92,85,30.08,29.89,11,3,16,0.02
2013-3-16,31.7,23.4,17.9,24.0,17.8,13.1,94,80,60,30.20,29.88,9,4,16,0.00
2013-3-17,27.2,19.5,10.5,16.4,11.1,5.3,83,70,56,30.36,30.08,9,4,15,0.00
2013-3-18,30.6,22.5,14.8,29.0,19.8,11.0,94,89,82,30.08,29.60,18,5,28,0.00
2013-3-19,28.1,18.5,11.9,12.3,8.6,5.8,84,67,45,30.09,29.73,17,9,29,0.00
2013-3-20,21.7,13.0,5.8,6.8,2.3,-3.3,78,62,50,30.15,30.08,12,5,21,0.00
2013-3-21,31.4,18.1,5.8,14.9,7.5,0.7,87,65,41,30.15,30.07,7,2,12,0.00
2013-3-22,36.0,20.6,9.2,23.3,11.5,4.8,92,69,44,30.13,30.08,5,1,8,0.02
2013-3-23,41.8,29.1,18.3,27.4,18.7,11.8,94,67,41,30.19,30.11,6,1,12,0.00
2013-3-24,33.2,29.5,27.0,29.3,23.6,20.5,91,79,67,30.13,29.88,13,4,22,0.01
2013-3-25,35.6,30.0,20.7,25.9,21.8,16.9,92,72,63,30.17,29.91,10,4,17,0.00
2013-3-26,43.0,34.0,28.1,28.1,23.3,21.0,81,65,51,30.29,30.16,8,2,14,0.00
2013-3-27,45.8,36.4,29.0,28.2,21.5,17.9,80,56,35,30.35,30.29,9,2,12,0.00
2013-3-28,49.9,36.3,23.0,36.2,19.0,16.5,83,52,29,30.39,30.31,5,2,8,0.00
2013-3-29,50.4,38.6,25.8,25.7,21.2,18.0,84,52,30,30.36,30.23,4,2,7,0.00
2013-3-30,50.5,40.7,34.2,41.0,31.7,22.0,95,71,53,30.23,29.84,16,5,22,0.01
2013-3-31,42.3,36.6,30.3,37.5,30.3,16.0,100,79,52,29.96,29.74,15,5,19,0.00
2013-4-1,34.6,28.1,21.7,18.2,13.5,10.0,71,55,37,30.23,29.96,19,5,22,0.00
2013-4-2,40.3,29.0,20.6,17.3,13.5,9.1,77,54,31,30.38,30.23,10,3,17,0.00
2013-4-3,44.4,33.4,20.3,24.5,15.7,9.5,93,52,26,30.52,30.27,8,2,14,0.00
2013-4-4,53.6,42.3,32.7,36.2,26.1,19.0,65,53,42,30.28,29.99,15,6,22,0.00
2013-4-5,46.1,36.9,28.5,29.1,22.9,19.0,93,59,36,30.28,30.09,9,3,14,0.00
2013-4-6,56.8,42.3,29.4,48.3,35.5,27.2,93,78,51,30.17,29.53,14,6,21,0.00
2013-4-7,51.1,41.0,35.0,39.0,33.7,30.9,92,76,56,29.98,29.60,9,3,21,0.00
2013-4-8,47.3,38.6,34.9,42.1,35.4,30.8,97,88,80,30.05,29.72,7,3,19,0.00
2013-4-9,38.3,36.0,31.7,37.0,34.1,-99.9,96,93,76,30.15,29.96,15,5,26,0.00
2013-4-10,33.2,31.7,30.3,31.4,30.2,28.5,96,94,86,30.20,29.93,11,2,26,0.00
2013-4-11,32.4,32.2,31.6,30.3,28.6,28.0,92,86,85,30.00,29.93,13,7,26,0.00
2013-4-13,35.6,33.8,29.8,31.0,27.1,25.0,89,76,70,30.04,29.87,13,5,0,0.00
2013-4-14,39.3,33.1,29.0,37.0,30.5,26.0,94,90,84,30.05,29.64,15,4,0,0.00
2013-4-15,56.8,45.0,37.1,46.0,35.2,29.0,97,71,44,29.98,29.64,24,7,0,0.00
2013-4-16,52.4,40.0,31.2,32.0,29.4,27.0,84,67,42,30.35,29.98,8,3,0,0.00
2013-4-17,40.2,36.9,33.3,37.0,33.0,29.0,95,86,73,30.38,29.92,21,6,0,0.00
2013-4-18,46.0,39.5,37.7,45.0,38.4,35.0,97,95,86,29.91,29.32,15,5,0,0.00
2013-4-19,38.5,32.9,27.9,35.0,27.2,20.0,93,80,60,29.95,29.32,23,9,0,0.00
2013-4-20,45.5,34.1,23.2,20.0,15.4,8.0,84,51,22,30.41,29.96,11,2,0,0.00
2013-4-21,49.9,38.3,30.1,36.0,29.4,18.0,94,72,50,30.52,30.24,17,5,0,0.00
2013-4-22,63.7,52.0,41.3,43.0,39.1,36.0,87,63,41,30.25,29.98,16,4,0,0.00
2013-4-23,55.0,40.9,33.7,46.0,33.7,27.0,92,76,62,30.05,29.89,11,5,0,0.00
2013-4-24,52.0,41.0,29.5,35.0,25.7,19.0,92,58,33,30.07,29.98,18,4,0,0.00
2013-4-25,49.0,42.0,35.0,36.0,30.9,27.0,91,67,43,30.29,29.97,14,5,0,0.00
2013-4-26,69.7,54.4,37.3,47.0,37.0,27.0,71,54,35,30.27,30.10,20,7,0,0.00
2013-4-27,67.4,58.0,48.2,49.0,46.4,44.0,88,67,50,30.20,30.00,12,4,0,0.00
2013-4-28,72.3,59.4,41.3,47.0,43.0,38.0,92,59,33,30.01,29.77,10,2,0,0.00
2013-4-29,71.0,59.9,54.4,57.0,51.4,46.0,94,74,53,29.83,29.68,13,3,0,0.00
2013-4-30,85.6,71.6,59.4,61.0,55.8,49.0,91,62,32,29.86,29.61,26,8,0,0.00
2013-5-1,78.6,61.0,45.3,52.0,46.0,37.0,82,60,38,30.27,29.88,17,4,0,0.00
2013-5-2,46.5,40.5,34.1,36.0,34.0,31.0,92,78,66,30.35,30.26,13,6,0,0.02
2013-5-3,44.1,37.6,33.0,43.0,36.2,31.0,96,94,88,30.30,30.08,12,4,0,0.00
2013-5-4,70.0,55.1,42.2,54.0,46.8,41.0,96,76,50,30.10,30.03,11,2,0,0.00
2013-5-5,73.8,60.6,46.4,48.0,45.6,43.0,87,61,34,30.09,30.01,8,2,0,0.00
2013-5-6,76.6,62.7,47.5,50.0,42.5,39.0,80,51,28,30.09,29.98,8,1,0,0.00
2013-5-7,79.0,65.3,47.6,45.0,39.7,34.0,76,44,20,30.07,29.98,8,1,0,0.00
2013-5-8,82.8,67.7,49.3,51.0,43.5,39.0,75,45,23,30.02,29.93,5,0,0,0.00
2013-5-9,64.8,57.9,44.3,56.0,51.0,43.0,94,79,53,29.95,29.90,19,3,0,0.54
2013-5-10,57.7,46.5,38.5,48.0,42.5,37.0,95,86,68,30.04,29.94,12,4,0,0.00
2013-5-11,53.8,46.8,38.7,47.0,35.2,23.0,95,67,33,30.07,29.81,17,6,0,0.00
2013-5-12,54.8,43.9,33.9,31.0,24.0,20.0,77,48,27,30.15,30.07,15,4,0,0.00
2013-5-13,63.0,49.4,29.7,38.0,29.3,22.0,95,52,24,30.20,29.88,6,2,0,0.00
2013-5-14,87.9,70.7,49.0,59.0,48.1,37.0,69,48,25,29.87,29.48,12,4,0,0.00
2013-5-15,77.2,70.1,61.1,59.0,43.6,37.0,57,40,25,29.82,29.52,12,3,0,0.00
2013-5-16,82.1,67.8,54.6,53.0,47.1,35.0,73,49,32,29.99,29.82,11,2,0,0.00
2013-5-17,57.9,52.5,47.0,52.0,45.5,36.0,94,79,45,30.10,29.97,10,3,0,0.32
2013-5-18,78.2,63.3,49.5,65.0,56.8,48.0,95,81,59,30.09,29.91,7,2,0,0.00
2013-5-19,84.0,71.3,58.7,66.0,61.3,56.0,93,73,49,29.92,29.64,16,3,0,0.00
2013-5-20,81.1,71.2,60.4,63.0,60.9,57.0,96,72,50,29.77,29.59,21,4,0,0.26
2013-5-21,74.9,68.1,61.6,63.0,59.0,56.0,88,73,57,29.68,29.55,15,4,0,0.00
2013-5-22,63.2,58.4,51.5,60.0,55.9,50.0,96,91,81,29.81,29.63,15,2,0,0.48
2013-5-23,63.4,53.2,45.1,50.0,41.1,31.0,98,68,31,30.33,29.83,13,4,0,0.00
2013-5-24,63.6,51.8,37.0,43.0,36.7,32.0,90,59,36,30.48,30.32,5,1,0,0.00
2013-5-25,63.8,54.6,46.0,43.0,38.9,35.0,77,57,35,30.40,30.29,9,2,0,0.00
2013-5-26,63.7,54.6,40.9,48.0,41.5,37.0,87,64,40,30.32,30.17,9,2,0,0.00
2013-5-27,55.7,52.5,49.7,52.0,46.8,40.0,96,82,59,30.18,29.91,11,3,0,0.18
2013-5-28,61.8,55.0,49.6,59.0,53.8,49.0,97,95,90,29.92,29.74,8,2,0,0.04
2013-5-29,83.5,68.7,58.4,67.0,61.9,57.0,97,81,51,29.88,29.78,19,3,0,0.25
2013-5-30,82.1,70.9,61.8,69.0,65.3,60.0,97,83,62,29.85,29.65,17,6,0,0.04
2013-5-31,78.3,69.0,62.6,66.0,61.5,59.0,89,78,57,29.73,29.64,15,6,0,0.00
2013-6-1,77.7,67.3,56.4,64.0,57.1,52.0,95,71,46,29.69,29.58,15,4,0,0.00
2013-6-2,64.9,54.2,45.5,57.0,43.0,39.0,92,68,43,30.03,29.69,11,2,0,0.00
2013-6-3,73.2,59.1,42.9,48.0,43.3,40.0,90,60,33,30.10,30.00,10,2,0,0.00
2013-6-4,58.4,53.7,49.7,53.0,50.4,45.0,95,89,62,30.19,30.07,8,2,0,0.16
2013-6-5,58.3,52.7,49.5,55.0,50.7,48.0,96,93,87,30.16,29.98,9,2,0,0.31
2013-6-6,56.0,52.7,50.2,54.0,50.8,49.0,97,93,90,30.00,29.96,11,2,0,0.19
2013-6-7,69.5,58.6,48.2,54.0,50.2,46.0,95,75,53,30.03,29.93,5,0,0,0.00
2013-6-8,68.0,59.4,52.9,57.0,53.5,51.0,94,82,59,30.01,29.93,8,0,0,0.06
2013-6-9,76.4,63.7,52.7,62.0,55.8,50.0,92,76,56,30.02,29.81,12,3,0,0.01
2013-6-10,82.6,70.4,58.5,65.0,61.1,57.0,94,74,51,29.84,29.77,5,1,0,0.00
2013-6-11,80.9,70.2,58.9,66.0,62.3,57.0,94,77,56,29.89,29.79,6,1,0,0.00
2013-6-12,76.9,65.6,58.1,67.0,62.7,56.0,96,90,69,29.91,29.65,7,1,0,0.02
2013-6-13,77.9,67.3,57.0,60.0,56.2,54.0,95,70,47,30.06,29.77,8,1,0,0.00
2013-6-14,77.4,66.4,53.0,58.0,54.4,50.0,91,67,47,30.14,29.98,8,1,0,0.00
2013-6-15,80.5,67.2,57.0,69.0,61.9,52.0,96,84,65,30.04,29.77,30,2,0,0.04
2013-6-16,82.8,71.7,59.4,67.0,57.7,50.0,97,66,34,29.88,29.83,9,2,0,0.00
2013-6-17,83.9,70.1,58.6,62.0,57.0,51.0,91,66,34,29.98,29.84,10,3,0,0.02
2013-6-18,71.9,61.7,51.0,56.0,50.7,47.0,94,70,47,30.10,29.97,13,2,0,0.00
2013-6-19,78.2,65.1,47.6,56.0,51.3,45.0,92,64,41,30.15,30.04,6,1,0,0.00
2013-6-20,86.2,72.7,57.5,64.0,57.1,50.0,77,60,36,30.12,30.00,11,2,0,0.00
2013-6-21,77.3,69.8,63.6,69.0,64.2,59.0,95,83,70,30.04,29.85,12,1,0,0.02
2013-6-22,78.6,70.3,65.6,70.0,66.5,64.0,96,88,68,30.10,29.87,15,2,0,0.00
2013-6-23,85.4,74.6,64.1,73.0,67.8,62.0,96,80,63,29.99,29.79,19,5,0,0.00
2013-6-24,81.1,73.0,68.7,70.0,67.1,65.0,89,82,65,29.96,29.81,16,3,0,0.00
2013-6-25,80.4,71.3,65.0,73.0,67.8,64.0,96,89,69,29.88,29.77,9,1,0,0.00
2013-6-26,83.3,74.4,68.4,71.0,68.8,65.0,96,83,62,29.76,29.66,6,1,0,0.00
2013-6-27,86.5,76.7,68.4,72.0,66.4,60.0,96,73,44,29.76,29.65,12,1,0,0.00
2013-6-28,74.0,68.2,63.8,67.0,61.9,58.0,95,81,65,29.70,29.61,9,2,0,0.00
2013-6-29,71.3,64.6,61.4,63.0,60.1,55.0,95,86,72,29.86,29.64,9,1,0,0.00
2013-6-30,78.1,67.6,54.3,55.0,50.6,43.0,80,57,29,30.06,29.87,12,2,0,0.00
2013-7-1,79.9,69.4,57.5,57.0,52.3,49.0,82,57,36,30.14,30.05,10,1,0,0.00
2013-7-2,76.0,66.5,56.5,57.0,51.7,42.0,88,62,32,30.13,30.06,11,1,0,0.00
2013-7-3,71.8,63.5,55.8,61.0,56.5,48.0,90,78,68,30.10,30.01,5,0,0,0.00
2013-7-4,82.7,71.2,59.9,62.0,59.7,58.0,94,70,43,30.06,29.97,9,2,0,0.00
2013-7-5,85.4,74.9,62.1,66.0,62.3,60.0,92,67,43,30.02,29.94,12,3,0,0.00
2013-7-6,87.0,74.7,66.1,67.0,63.7,61.0,84,70,46,29.99,29.90,12,2,0,0.00
2013-7-7,89.5,77.3,65.8,72.0,68.3,63.0,93,75,52,29.93,29.85,12,2,0,0.00
2013-7-8,89.3,76.9,69.5,75.0,70.9,68.0,96,83,61,29.96,29.83,11,2,0,0.08
2013-7-9,83.6,75.1,67.9,75.0,70.7,67.0,96,86,70,29.97,29.76,14,3,0,0.00
2013-7-10,79.1,72.1,61.4,69.0,60.4,56.0,89,68,46,30.00,29.79,12,2,0,0.00
2013-7-11,83.6,69.3,56.5,62.0,57.5,54.0,92,69,39,30.11,30.01,5,0,0,0.00
2013-7-12,82.6,71.0,58.7,61.0,57.6,54.0,90,65,40,30.14,30.05,8,1,0,0.00
2013-7-13,84.1,71.7,60.9,65.0,60.3,54.0,86,68,49,30.14,30.05,7,1,0,0.00
2013-7-14,86.6,75.4,60.4,69.0,64.2,57.0,90,70,49,30.21,30.14,7,1,0,0.00
2013-7-15,90.2,79.3,67.6,74.0,69.8,65.0,93,74,51,30.25,30.17,5,0,0,0.00
2013-7-16,91.6,81.9,72.8,76.0,73.5,71.0,94,77,59,30.23,30.17,12,2,0,0.00
2013-7-17,93.1,83.5,74.6,76.0,73.0,71.0,90,72,50,30.24,30.11,6,2,0,0.00
2013-7-18,92.6,83.0,74.5,75.0,72.4,71.0,88,72,51,30.12,29.88,14,5,0,0.00
2013-7-19,90.3,82.3,69.8,70.0,63.4,58.0,76,54,35,29.81,29.68,16,3,0,0.00
2013-7-20,84.4,72.1,62.1,64.0,61.3,57.0,89,70,46,29.96,29.80,8,1,0,0.00
2013-7-21,69.5,62.7,58.3,63.0,59.5,56.0,96,90,71,29.98,29.89,7,1,0,0.00
2013-7-22,83.9,71.2,59.0,72.0,65.7,58.0,97,84,62,29.89,29.54,15,2,0,0.00
2013-7-23,74.6,67.5,58.0,67.0,56.0,49.0,85,67,52,29.99,29.70,8,1,0,0.00
2013-7-24,74.9,63.7,51.5,55.0,52.0,48.0,91,67,45,30.09,30.00,7,0,0,0.00
2013-7-25,77.5,67.2,55.1,65.0,59.4,52.0,89,76,61,30.04,29.95,13,3,0,0.00
2013-7-26,75.7,66.6,56.4,67.0,59.4,50.0,95,79,48,29.95,29.81,17,2,0,0.06
2013-7-27,58.4,52.8,46.5,50.0,47.2,43.0,90,81,67,29.96,29.87,17,2,0,0.00
2013-7-28,66.6,57.1,49.7,55.0,50.8,47.0,94,80,62,30.02,29.85,10,2,0,0.01
2013-7-29,75.2,61.3,49.7,59.0,53.9,47.0,93,78,54,30.16,30.02,5,0,0,0.00
2013-7-30,76.3,65.7,55.4,63.0,59.0,54.0,95,80,57,30.18,30.06,11,1,0,0.01
2013-7-31,79.0,67.3,60.5,67.0,61.8,59.0,96,83,62,30.07,29.94,9,1,0,0.00
2013-8-1,78.2,67.2,56.5,60.0,56.3,53.0,93,71,43,29.99,29.88,9,2,0,0.00
2013-8-2,80.0,69.2,58.0,65.0,57.3,53.0,95,69,45,29.96,29.81,8,1,0,0.06
2013-8-3,77.6,65.7,52.5,59.0,52.5,50.0,92,66,39,30.14,29.97,7,1,0,0.00
2013-8-4,76.4,65.0,53.0,58.0,53.4,50.0,89,68,42,30.23,30.09,6,0,0,0.00
2013-8-5,73.7,63.2,56.2,63.0,58.8,54.0,95,86,67,30.09,29.85,9,2,0,0.01
2013-8-6,82.2,71.7,64.1,69.0,65.4,63.0,96,82,59,29.86,29.71,12,3,0,0.00
2013-8-7,78.3,67.5,60.2,69.0,60.5,54.0,95,80,54,29.98,29.72,6,1,0,0.05
2013-8-8,77.8,67.4,54.6,62.0,56.2,51.0,87,69,48,30.05,29.97,6,0,0,0.00
2013-8-9,79.9,69.1,58.7,62.0,56.8,53.0,90,67,44,30.06,29.95,11,2,0,0.00
2013-8-10,76.6,65.4,55.6,58.0,54.7,52.0,90,70,47,30.16,30.06,4,0,0,0.00
2013-8-11,67.3,61.5,56.3,64.0,59.2,54.0,96,92,81,30.12,30.02,5,0,0,0.08
2013-8-12,79.8,68.3,58.9,67.0,59.8,56.0,97,77,50,30.03,29.91,8,1,0,0.00
2013-8-13,72.0,61.3,49.5,57.0,49.3,46.0,90,67,44,30.18,30.01,7,1,0,0.00
2013-8-14,75.2,60.2,46.3,55.0,49.9,44.0,93,71,42,30.23,30.11,7,0,0,0.00
2013-8-15,77.8,65.9,56.7,60.0,55.1,52.0,90,71,43,30.14,30.07,10,1,0,0.00
2013-8-16,82.0,69.0,55.3,60.0,55.0,51.0,91,65,37,30.18,30.12,5,0,0,0.00
2013-8-17,82.8,69.8,54.7,61.0,56.9,53.0,93,66,40,30.23,30.14,4,0,0,0.00
2013-8-18,81.6,69.6,56.6,62.0,56.6,54.0,89,66,41,30.20,30.06,8,1,0,0.00
2013-8-19,81.3,69.9,58.1,65.0,60.3,55.0,90,73,49,30.07,29.98,14,2,0,0.00
2013-8-20,86.5,74.3,61.4,69.0,64.1,59.0,93,72,50,30.03,29.94,12,3,0,0.00
2013-8-21,89.8,77.8,68.5,73.0,68.5,64.0,93,74,57,29.98,29.85,16,4,0,0.02
2013-8-22,82.1,71.0,64.3,66.0,62.5,57.0,96,77,44,30.11,29.96,6,1,0,0.00
2013-8-23,84.1,69.9,55.8,62.0,58.2,53.0,91,68,42,30.19,30.10,6,1,0,0.00
2013-8-24,84.2,71.5,56.7,70.0,61.6,54.0,89,72,48,30.23,30.11,12,2,0,0.00
2013-8-25,91.4,80.1,70.6,72.0,69.1,66.0,87,71,51,30.13,30.01,15,6,0,0.00
2013-8-26,91.7,80.9,73.1,76.0,70.2,65.0,83,70,56,30.09,29.89,10,3,0,0.00
2013-8-27,95.0,82.3,73.6,75.0,72.8,70.0,92,74,52,29.90,29.74,11,3,0,0.00
2013-8-28,84.7,75.5,69.8,73.0,69.6,68.0,95,82,61,30.02,29.82,7,1,0,0.00
2013-8-29,89.2,76.7,63.5,71.0,66.8,62.0,96,74,43,30.07,29.92,10,2,0,0.00
2013-8-30,91.7,78.4,67.3,77.0,69.9,62.0,92,76,55,29.92,29.76,10,2,0,0.00
2013-8-31,81.0,70.5,60.2,67.0,63.2,59.0,94,79,58,29.87,29.76,6,1,0,0.00
2013-9-1,86.0,72.3,62.8,71.0,62.8,58.0,96,75,42,29.83,29.70,11,2,0,0.00
2013-9-2,71.3,62.8,52.5,60.0,54.3,49.0,92,75,52,30.02,29.83,10,1,0,0.00
2013-9-3,75.8,60.5,44.8,54.0,50.0,44.0,96,71,41,30.11,30.00,9,2,0,0.00
2013-9-4,74.6,60.8,53.3,65.0,56.8,51.0,92,86,72,30.13,30.02,5,2,0,0.00
2013-9-5,78.5,65.6,55.8,60.0,55.7,50.0,94,72,47,30.27,30.13,8,2,0,0.00
2013-9-6,87.8,69.9,51.7,66.0,57.6,47.0,85,67,46,30.21,29.93,10,3,0,0.00
2013-9-7,91.5,77.1,68.7,72.0,66.3,62.0,90,70,50,29.99,29.84,18,2,0,0.00
2013-9-8,70.3,65.4,58.6,65.0,60.3,55.0,93,84,74,30.08,29.93,16,3,0,0.00
2013-9-9,89.4,75.8,60.7,76.0,67.8,60.0,96,78,57,29.96,29.71,13,3,0,0.00
2013-9-10,92.3,82.9,73.7,70.0,66.1,64.0,72,58,42,29.92,29.74,16,5,0,0.00
2013-9-11,82.8,74.1,66.3,65.0,62.6,57.0,84,68,45,30.01,29.91,13,3,0,0.00
2013-9-12,73.4,64.2,52.5,58.0,52.2,44.0,88,66,45,30.16,29.95,11,2,0,0.00
2013-9-13,67.3,54.5,42.5,45.0,41.4,37.0,94,65,36,30.26,30.15,6,1,0,0.00
2013-9-14,71.7,57.5,42.1,49.0,44.8,39.0,92,65,41,30.17,29.99,12,2,0,0.00
2013-9-15,64.9,56.5,52.3,57.0,53.1,48.0,96,88,70,30.27,29.96,7,1,0,0.16
2013-9-16,63.6,51.8,39.3,47.0,42.6,38.0,94,73,47,30.44,30.27,7,1,0,0.00
2013-9-17,66.6,53.0,37.7,55.0,47.6,36.0,95,83,61,30.37,30.09,8,1,0,0.02
2013-9-18,79.1,65.9,56.3,67.0,60.8,54.0,94,85,63,30.09,29.84,10,3,0,0.00
2013-9-19,81.7,70.7,66.1,74.0,67.7,65.0,96,90,75,29.84,29.67,11,3,0,0.00
2013-9-20,67.0,62.7,53.7,66.0,59.2,51.0,96,89,70,29.83,29.69,11,2,0,0.00
2013-9-21,60.9,52.7,45.1,51.0,46.3,43.0,94,80,60,29.99,29.83,9,1,0,0.00
2013-9-22,63.3,50.2,39.0,46.0,42.4,38.0,96,77,51,30.11,29.99,6,0,0,0.00
2013-9-23,67.6,53.2,39.5,53.0,46.7,38.0,96,80,58,30.14,30.04,8,1,0,0.01
2013-9-24,73.0,55.9,42.3,55.0,48.7,41.0,96,80,50,30.07,29.96,7,1,0,0.01
2013-9-25,70.4,55.8,45.2,55.0,50.3,44.0,96,83,58,30.03,29.96,7,1,0,0.00
2013-9-26,75.5,58.3,43.5,60.0,51.0,42.0,97,79,47,30.09,30.00,9,1,0,0.01
2013-9-27,79.8,63.7,47.7,58.0,52.1,46.0,94,69,38,30.13,30.00,9,2,0,0.00
2013-9-28,78.7,62.4,51.4,64.0,54.3,48.0,95,76,55,30.02,29.77,15,4,0,0.31
2013-9-29,70.1,56.8,44.8,51.0,47.4,44.0,96,74,43,30.06,29.95,8,1,0,0.00
2013-9-30,71.3,58.2,46.7,50.0,46.4,43.0,88,68,42,29.98,29.79,15,3,0,0.00
2013-10-1,78.3,66.5,55.3,61.0,55.3,47.0,89,69,48,29.95,29.78,16,4,0,0.00
2013-10-2,76.2,61.5,47.3,50.0,44.4,39.0,87,58,29,30.11,29.95,6,1,0,0.00
2013-10-3,70.8,59.8,53.2,63.0,54.5,41.0,95,83,57,29.95,29.82,7,1,0,0.02
2013-10-4,58.1,56.6,55.0,57.0,55.5,54.0,99,96,95,30.02,29.87,10,3,0,0.00
2013-10-5,67.4,61.6,56.9,67.0,60.8,55.0,97,97,90,29.96,29.72,12,3,0,0.00
2013-10-6,58.7,50.9,42.6,53.0,43.7,40.0,94,78,53,29.74,29.66,8,2,0,0.00
2013-10-7,65.2,52.9,43.6,49.0,44.5,42.0,94,75,46,30.07,29.72,11,3,0,0.00
2013-10-8,74.4,57.3,40.7,52.0,45.9,39.0,95,69,40,30.14,30.05,11,3,0,0.00
2013-10-9,72.4,59.9,49.2,53.0,48.5,46.0,88,68,45,30.18,30.09,12,3,0,0.00
2013-10-10,73.6,57.4,41.8,53.0,48.0,40.0,95,73,44,30.16,30.04,8,1,0,0.00
2013-10-11,74.5,59.7,46.7,61.0,52.6,45.0,95,79,56,30.05,29.89,17,3,0,0.00
2013-10-12,68.6,60.7,47.3,60.0,49.5,38.0,87,68,45,30.15,29.85,16,5,0,0.00
2013-10-13,61.8,49.6,39.5,43.0,38.1,35.0,91,67,39,30.43,30.16,10,1,0,0.00
2013-10-14,60.3,47.6,34.5,45.0,39.5,32.0,92,75,56,30.45,30.15,11,2,0,0.00
2013-10-15,57.7,50.1,43.8,56.0,47.4,41.0,96,90,78,30.15,29.73,13,3,0,0.00
2013-10-16,50.4,47.7,43.2,48.0,45.5,41.0,96,92,85,29.94,29.76,6,1,0,0.00
2013-10-17,54.7,45.6,38.4,42.0,39.2,37.0,95,80,53,29.93,29.80,9,1,0,0.00
2013-10-18,45.4,42.7,38.2,43.0,38.9,35.0,93,86,77,29.95,29.80,13,3,0,0.00
2013-10-19,51.9,39.8,32.0,40.0,35.1,30.0,94,84,45,29.92,29.72,17,2,0,0.00
2013-10-20,46.5,39.4,34.1,44.0,37.8,33.0,96,94,87,29.87,29.70,12,1,0,0.00
2013-10-21,44.8,36.2,30.3,41.0,28.5,22.0,90,74,57,29.95,29.76,19,4,0,0.00
2013-10-22,46.5,35.8,26.8,33.0,27.1,23.0,89,72,52,30.01,29.94,8,1,0,0.00
2013-10-23,42.4,32.9,25.3,31.0,27.0,23.0,93,80,52,30.06,29.98,9,1,0,0.00
2013-10-24,43.1,35.6,29.9,29.0,26.9,25.0,92,72,52,30.32,30.06,8,2,0,0.00
2013-10-25,49.4,39.9,27.4,31.0,28.4,25.0,90,66,47,30.36,29.83,22,6,0,0.00
2013-10-26,49.6,45.4,40.4,37.0,31.9,29.0,79,60,47,30.07,29.75,18,4,0,0.00
2013-10-27,54.5,41.7,29.8,33.0,29.3,26.0,86,64,40,30.08,29.88,17,3,0,0.00
2013-10-28,40.6,37.5,33.7,32.0,28.5,26.0,82,70,61,30.47,30.10,12,3,0,0.00
2013-10-29,48.9,38.3,31.6,41.0,32.8,25.0,94,80,71,30.46,30.17,10,2,0,0.00
2013-10-30,53.9,46.7,38.2,51.0,45.2,37.0,96,94,87,30.16,29.75,8,1,0,0.00
2013-10-31,55.9,50.8,41.0,55.0,49.8,39.0,97,96,94,29.75,29.28,12,2,0,0.70
2013-11-1,43.8,41.7,39.0,42.0,39.7,37.0,95,92,88,29.77,29.30,13,2,0,0.01
2013-11-2,42.7,38.9,33.9,39.0,36.3,32.0,95,90,83,30.18,29.77,4,1,0,0.00
2013-11-3,49.0,38.4,27.3,42.0,33.7,26.0,96,84,59,30.32,30.18,9,2,0,0.01
2013-11-4,51.7,46.2,41.1,45.0,39.6,36.0,88,78,66,30.22,30.02,15,6,0,0.00
2013-11-5,51.2,47.0,38.9,50.0,44.5,37.0,96,91,73,30.27,29.83,8,2,0,0.89
2013-11-6,53.1,40.2,30.4,52.0,35.1,23.0,100,83,57,30.17,29.72,11,4,0,0.26
2013-11-7,40.4,31.9,26.5,31.0,27.1,24.0,93,83,64,30.27,30.17,9,2,0,0.00
2013-11-8,42.7,34.4,24.0,36.0,29.4,23.0,94,82,69,30.31,29.80,14,4,0,0.03
2013-11-9,48.4,43.6,38.3,40.0,34.9,26.0,86,72,59,30.09,29.72,25,8,0,0.00
2013-11-10,46.8,41.0,37.1,32.0,29.4,27.0,73,64,51,30.33,30.10,17,4,0,0.00
2013-11-11,41.3,30.2,21.1,34.0,22.6,12.0,93,74,55,30.63,30.06,13,3,0,0.05
2013-11-12,28.7,21.2,15.1,15.0,12.2,10.0,85,70,47,30.78,30.60,13,3,0,0.00
2013-11-13,43.4,30.2,16.0,25.0,16.7,11.0,84,60,43,30.59,30.04,18,7,0,0.00
2013-11-14,48.1,39.3,30.8,32.0,25.7,17.0,69,59,48,30.04,29.87,11,5,0,0.00
2013-11-15,55.1,42.0,31.7,37.0,33.0,27.0,84,71,51,29.93,29.87,9,2,0,0.00
2013-11-16,57.5,45.8,36.1,55.0,43.8,33.0,96,92,83,29.87,29.41,21,5,0,1.35
2013-11-17,57.3,48.5,37.3,54.0,45.3,30.0,96,89,75,29.64,29.20,15,5,0,0.41
2013-11-18,36.8,30.8,24.5,30.0,23.5,20.0,84,75,68,30.29,29.65,20,6,0,0.00
2013-11-19,39.1,29.7,19.5,29.0,23.4,18.0,95,78,55,30.41,30.25,7,1,0,0.00
2013-11-20,38.6,34.8,31.4,34.0,29.5,27.0,99,81,66,30.25,30.13,13,3,0,0.01
2013-11-21,41.2,37.3,33.8,39.0,35.3,31.0,96,93,87,30.32,30.13,8,1,0,0.00
2013-11-22,34.8,29.0,24.4,30.0,21.5,13.0,93,75,51,30.53,30.32,13,3,0,0.00
2013-11-23,24.5,15.5,8.7,17.0,6.3,3.0,81,68,52,30.78,30.46,15,2,0,0.00
2013-11-24,25.8,16.3,5.3,7.0,4.1,2.0,88,62,37,30.76,30.26,19,4,0,0.00
2013-11-25,31.9,27.4,22.0,27.0,19.8,6.0,85,74,47,30.25,30.01,18,7,0,0.00
2013-11-26,31.7,23.4,11.2,26.0,14.5,4.0,82,69,53,30.29,30.03,8,1,0,0.00
2013-11-27,28.8,18.8,9.2,21.0,9.9,5.0,88,70,45,30.35,30.25,8,1,0,0.00
2013-11-28,30.2,23.1,17.2,23.0,14.8,12.0,91,71,55,30.56,30.19,9,1,0,0.00
2013-11-29,29.6,21.6,10.1,23.0,16.1,8.0,94,80,61,30.66,30.36,10,1,0,0.00
2013-11-30,46.2,35.1,25.8,37.0,26.7,19.0,90,72,52,30.35,30.05,8,2,0,0.00
2013-12-1,41.3,32.5,25.1,39.0,26.8,23.0,95,80,58,30.19,30.01,2,0,0,0.00
2013-12-2,38.3,30.1,21.1,32.0,26.8,19.0,95,88,76,30.01,29.79,11,2,0,0.00
2013-12-3,33.1,32.4,31.6,32.0,31.5,31.0,96,96,95,29.81,29.75,12,4,0,0.00
2013-12-4,44.6,34.6,31.5,44.0,33.6,29.0,97,96,88,29.82,29.45,25,5,0,0.00
2013-12-5,31.9,18.1,7.6,29.0,11.1,3.0,88,74,62,30.34,29.64,20,8,0,0.00
2013-12-6,14.3,6.9,2.2,5.0,1.4,-2.0,92,78,63,30.64,30.34,11,2,0,0.00
2013-12-7,23.6,4.8,-3.4,22.0,-1.0,-7.0,95,78,52,30.79,30.65,11,1,0,0.00
2013-12-8,20.2,9.9,1.7,19.0,6.6,-2.0,94,86,72,30.69,30.05,6,1,0,0.00
2013-12-9,20.2,7.2,-5.2,19.0,2.2,-10.0,93,80,62,30.22,30.01,21,6,0,0.00
2013-12-10,14.9,6.1,-6.9,9.0,0.2,-11.0,86,77,62,30.31,29.95,20,4,0,0.00
2013-12-11,11.8,2.6,-6.2,10.0,-3.8,-12.0,90,75,58,30.58,30.31,12,2,0,0.00
2013-12-12,19.5,9.5,-6.0,12.0,2.6,-11.0,82,74,64,30.54,30.24,11,2,0,0.00
2013-12-13,20.0,16.0,13.1,17.0,10.4,6.0,89,78,72,30.33,30.21,12,2,0,0.00
2013-12-14,28.5,17.5,13.5,27.0,14.8,9.0,94,89,82,30.31,30.00,12,2,0,0.00
2013-12-15,14.5,6.6,-4.3,11.0,0.6,-9.0,91,77,55,30.22,29.99,14,2,0,0.00
2013-12-16,13.1,5.7,-5.5,11.0,1.9,-11.0,91,84,69,30.23,30.07,9,1,0,0.00
2013-12-17,31.7,22.9,13.2,27.0,18.3,9.0,92,83,70,30.11,29.92,16,4,0,0.00
2013-12-18,34.4,20.7,6.5,25.0,13.3,3.0,87,74,55,30.14,29.77,9,2,0,0.00
2013-12-19,29.3,24.5,18.3,26.0,20.8,16.0,93,86,78,30.05,29.82,14,3,0,0.00
2013-12-20,22.8,20.2,17.9,21.0,18.4,16.0,94,92,90,29.99,29.88,10,2,0,0.00
2013-12-21,26.3,23.8,21.6,25.0,22.3,20.0,95,94,90,29.96,29.84,11,2,0,0.00
2013-12-22,27.2,22.8,19.4,26.0,21.0,18.0,95,92,90,30.16,29.82,6,1,0,0.00
2013-12-23,31.7,11.7,-0.9,31.0,9.4,-4.0,96,90,87,30.50,30.16,8,1,0,0.00
2013-12-24,13.0,2.4,-9.1,9.0,-0.7,-12.0,99,86,82,30.61,30.35,5,1,0,0.00
2013-12-25,21.1,15.3,7.1,19.0,13.0,5.0,92,90,88,30.35,30.12,6,2,0,0.00
2013-12-26,30.8,17.3,11.4,30.0,14.7,9.0,96,89,84,30.27,30.14,9,1,0,0.00
2013-12-27,35.3,23.8,6.5,30.0,20.5,4.0,96,87,78,30.29,30.00,11,3,0,0.00
2013-12-28,43.5,35.0,25.6,32.0,29.1,24.0,95,80,63,30.07,29.75,11,3,0,0.00
2013-12-29,36.5,15.3,-7.4,31.0,10.0,-12.0,90,79,68,30.30,29.73,16,4,0,0.00
2013-12-30,3.2,-4.9,-15.3,-3.0,-10.9,-20.0,92,76,53,30.42,30.29,4,1,0,0.00
2013-12-31,6.4,1.9,-3.5,2.0,-2.7,-8.0,89,81,70,30.48,30.28,7,2,0,0.00
2014-1-1,10.4,4.4,-5.5,7.0,-0.7,-9.0,89,79,64,30.53,30.43,4,1,0,0.00
2014-1-2,11.9,5.8,-4.3,7.0,0.0,-8.0,90,77,57,30.51,30.39,8,2,0,0.00